www.pogodaiklimat.ru

Погода и климат >> Архив погоды >> Гана >> Kete-Krachi


ПОГОДА в Kete-Krachi

  • Прогноз погоды в Kete-Krachi
  • Монитор погоды в Kete-Krachi
  • Климат города

АРХИВ ПОГОДЫ в Kete-Krachi

Время (UTC), дата Ветер
(напр.,м/с)
 
Видим.   Явления Облачность Т
(С)
Тd
(С)
f
(%)
Тe
(С)
Тes
(С)
Комфортность P
(гПа)
Po
(гПа)
Тmin
(С)
Tmax
(С)
R
(мм)
R24
(мм)
S
(см)
09 18.04 ЮЗ 1 26 км 5/5 480 м
[Cu med, cong]
+30.0 +25.9 79 +45 +52 опасность
перегрева
1012.1 1012.0
12 18.04 Ю 2 26 км 5/5 480 м
[Cu med, cong]
+34.0 +25.1 60 +48 +60 опасность
перегрева
1011.7 1012.0
15 18.04 ЮЗ 1 24 км гроза без осадков 8/6 400 м
[Cb cap Ac trans]
+35.7 +24.0 51 +47 +51 опасность
перегрева
1006.5 1007.0
18 18.04 ЮЗ 1 20 км в посл. час гроза {дождь} 9/3 400 м
[Sc Ac As]
+28.0 +24.9 83 +40 +40 очень
душно
1008.0 1008.0 +35.7 5
21 18.04 штиль 0 16 км 5/0
[Ac trans Ci sp]
+27.8 +23.3 77 +38 +38 очень
душно
1010.1 1010.0
00 19.04 штиль 0 16 км 4/0
[Ci sp]
+27.5 +24.1 82 +38 +38 очень
душно
1009.1 1009.0
03 19.04 штиль 0 16 км 4/0
[Ci sp]
+26.5 +23.0 81 +35 +35 очень
душно
1008.0 1008.0
06 19.04 штиль 0 20 км 8/0
[Ac trans Ci sp]
+26.2 +24.6 91 +37 +37 очень
душно
1010.6 1011.0 +25.7 5
09 19.04 штиль 0 25 км 5/3 450 м
[Cu med, cong Ci sp]
+29.4 +24.3 74 +41 +51 опасность
перегрева
1012.2 1012.0
12 19.04 ЮЗ 2 25 км 3/3 500 м
[Cu med, cong]
+33.0 +25.0 63 +47 +63 опасность
перегрева
1011.2 1011.0
15 19.04 ЮЗ 1 25 км 4/3 500 м
[Cb cap Ci sp]
+35.0 +24.3 54 +47 +56 опасность
перегрева
1007.2 1007.0
21 19.04 ЮЗ 1 18 км 9/0
[Ac trans]
+29.3 +23.4 71 +40 +40 очень
душно
1009.1 1009.0
00 20.04 ЮВ 1 18 км 9/0
[Ac trans]
+29.5 +24.1 73 +41 +41 опасность
перегрева
1009.6 1010.0
03 20.04 штиль 0 18 км 9/0
[Cs]
+28.5 +24.7 80 +41 +41 опасность
перегрева
1008.4 1008.0
06 20.04 штиль 0 22 км 9/0
[Cs]
+27.5 +25.1 87 +40 +40 очень
душно
1009.1 1009.0 +27.0
12 20.04 ЮЗ 2 26 км 9/4 540 м
[Cu med, cong Ac trans Cs]
+33.5 +25.1 62 +48 +56 опасность
перегрева
1011.1 1011.0
15 20.04 ЮЗ 1 26 км 9/4 540 м
[Cu med, cong Cs]
+35.0 +25.3 57 +49 +56 опасность
перегрева
1009.0 1009.0
18 20.04 СЗ 2 22 км 9/3 400 м
[Cb cap Ac trans Cs]
+33.4 +24.1 58 +45 +45 опасность
перегрева
1007.7 1008.0 +35.2
21 20.04 Ю 2 16 км зарница 8/3 400 м
[Cb cap Cs]
+29.4 +24.2 74 +41 +41 опасность
перегрева
1010.2 1010.0
00 21.04 ЮЗ 2 16 км 8/0
[Ac trans Cs]
+28.0 +23.6 77 +38 +38 очень
душно
1010.8 1011.0
03 21.04 ЮЗ 2 16 км 6/3 400 м
[Sc Ci sp]
+26.5 +23.6 84 +36 +36 очень
душно
1009.3 1009.0
06 21.04 ЮЗ 2 20 км 8/3 400 м
[Sc Ac trans Ci sp]
+26.3 +23.8 86 +36 +36 очень
душно
1010.3 1010.0 +25.9
12 21.04 ЮЗ 2 24 км 9/4 480 м
[Cu med, cong Ac trans]
+32.5 +24.7 64 +46 +53 опасность
перегрева
1012.4 1012.0
15 21.04 ЮВ 2 26 км 8/4 480 м
[Cu med, cong Ac trans Ci sp]
+34.5 +22.1 49 +43 +48 опасность
перегрева
1009.6 1010.0
00 22.04 ЮЗ 1 16 км 5/0
[Ci sp]
+29.0 +24.7 78 +41 +41 опасность
перегрева
1013.3 1013.0
03 22.04 ЮЗ 1 16 км 5/0
[Ac trans Ci sp]
+27.5 +24.1 82 +38 +38 очень
душно
1010.7 1011.0
06 22.04 штиль 0 20 км 9/3 400 м
[Sc Ac trans Cs]
+26.7 +24.8 89 +38 +38 очень
душно
1011.5 1012.0 +26.3
12 22.04 ЮЗ 2 26 км 9/3 480 м
[Cu med, cong Ac trans]
+33.0 +21.6 51 +41 +49 опасность
перегрева
1012.9 1013.0
15 22.04 ЮЗ 1 28 км 9/3 500 м
[Cu med, cong Ac trans Cs]
+35.0 +21.5 46 +43 +48 опасность
перегрева
1010.1 1010.0
18 22.04 штиль 0 26 км 9/0
[Cs]
+33.6 +24.0 57 +45 +45 опасность
перегрева
1008.5 1009.0 +35.1
09 23.04 ЮЗ 2 24 км 6/4 400 м
[Cu Sc Ac trans]
+30.2 +25.2 75 +44 +50 опасность
перегрева
1014.2 1014.0
12 23.04 З 2 26 км 6/3 540 м
[Cu med, cong Ac trans Ci sp]
+35.0 +24.9 56 +48 +61 опасность
перегрева
1013.6 1014.0
18 23.04 ЮВ 2 24 км 9/4 400 м
[Cb cap Ac trans Cs]
+34.2 +24.3 56 +46 +46 опасность
перегрева
1007.7 1008.0 +37.4
21 23.04 ЮВ 2 15 км гроза без осадков {дождь} 9/6 360 м
[Cb cap Ac As]
+25.5 +24.7 95 +36 +36 очень
душно
1011.4 1011.0
00 24.04 штиль 0 15 км в посл. час гроза {дождь} 9/5 360 м
[Cb cap Ac trans]
+26.1 +25.0 94 +37 +37 очень
душно
1013.4 1013.0 15
03 24.04 штиль 0 18 км 9/4 360 м
[Sc Ac trans]
+26.6 +25.5 94 +39 +39 очень
душно
1011.3 1011.0
09 24.04 ЮЗ 1 25 км 9/4 400 м
[Cu Sc Ci sp]
+29.0 +25.3 80 +42 +49 опасность
перегрева
1014.1 1014.0
12 24.04 ЮЗ 2 15 км 9/3 480 м
[Cu med, cong Cs]
+32.0 +25.2 67 +46 +59 опасность
перегрева
1012.9 1013.0
15 24.04 З 1 25 км 6/4 500 м
[Cu med, cong Ci sp]
+34.5 +25.2 59 +49 +56 опасность
перегрева
1009.9 1010.0
18 24.04 штиль 0 22 км 9/1 900 м
[Cb cap Ac trans Cs]
+33.3 +26.6 68 +50 +50 опасность
перегрева
1008.6 1009.0 +34.5
21 24.04 штиль 0 18 км 4/0
[Ci sp]
+30.5 +27.2 83 +49 +49 опасность
перегрева
1011.0 1011.0
03 25.04 штиль 0 18 км 5/0
[Ac trans Ci sp]
+28.8 +26.4 87 +44 +44 опасность
перегрева
1010.0 1010.0

 

Местоположение метеостанции Kete-Krachi (Гана): широта 7.82 долгота -0.03 высота над уровнем моря 122 м.

В архиве по умолчанию представлена погода в Kete-Krachi за последнюю неделю. Архивные данные за месяц целиком и за предыдущие месяцы, начиная с января 2011 года, Вы можете получить, выбрав интересующий диапазон дат из раскрывающегося списка и нажав кнопку "Ввод!".

Внимание! Время в таблицах - всемирное. Для получения местного времени необходимо прибавить поправку, которая в Kete-Krachi равна 1 ч.

Смотрите также архив погоды в соседних городах и на ближайших метеорологических станциях:

Погода в Atakpame (Того) (130 км)
Погода в Ho (Гана) (146 км)
Погода в Abetifi (Гана) (151 км)
Погода в Yendi (Гана) (181 км)
Погода в Sokode (Того) (183 км)
Погода в Akuse (Гана) (192 км)
Погода в Koforidua (Гана) (195 км)
Погода в Tamale (Гана) (207 км)
Погода в Akatsi (Гана) (210 км)
Погода в Kumasi (Гана) (212 км)

Пояснения к столбцам:

Ветер - указаны скорость ветра в м/с - средняя за 10 мин, порывы в срок и между сроками (в фигурных скобках) и направление, откуда дует ветер: С - северный, СВ - северо-восточный, В - восточный, ЮВ - юго-восточный, Ю - южный, ЮЗ - юго-западный, З - западный, СЗ - северо-западный.
Видимость - горизонтальная дальность видимости в метрах или километрах. При видимости от 1 до 10 км при отсутствии осадков обычно наблюдается дымка, при ухудшении видимости до 1 км и менее - туман. В сухую погоду видимость может ухудшаться дымом, пылью или мглою.
Явления - указаны атмосферные явления, наблюдавшиеся в срок или в последний час перед сроком; фигурными скобками обозначены явления, наблюдавшиеся между сроками (за 1-3 часа до срока); квадратными скобками обозначены град или гололедные отложения с указанием их диаметра в мм.
Облачность - указаны через наклонную черту общая и нижняя облачность в баллах и высота нижней границы облаков в метрах; квадратными скобками обозначены формы облаков: Ci - перистые, Cs - перисто-слоистые, Cc - перисто-кучевые, Ac - высококучевые, As - высокослоистые, Sc - слоисто-кучевые, Ns - слоисто-дождевые, Cu - кучевые, Cb - кучево-дождевые. Подробнее классификацию облаков см. в Атласе облаков (PDF).
T - Температура воздуха - температура, измеренная на высоте 2 м над землей.
Td - Температура точки росы - температура, при понижении до которой содержащийся в воздухе водяной пар достигнет насыщения.
f - Относительная влажность воздуха - влажноcть воздуха, измеренная на высоте 2 м над землей.
Te - Эффективная температура - температура, которую ощущает одетый по сезону человек в тени. Характеристика душности погоды. При расчете учитывается влияние влажности воздуха и скорости ветра на теплоощущения человека.
Tes - Эффективная температура на солнце - температура, которую ощущает человек, с поправкой на солнечный нагрев. Характеристика знойности погоды. Зависит от высоты солнца над горизонтом, облачности и скорости ветра. Ночью, в пасмурную погоду, а также при ветре 12 м/с и более поправка равна нулю.
P - Атмосферное давление - приведенное к уровню моря атмосферное давление.
Po - Атмосферное давление - измеренное на уровне метеостанции атмосферное давление.
Tmin - Минимальная температура - минимум температуры воздуха на высоте 2 м над землей.
Tmax - Максимальная температура - максимум температуры воздуха на высоте 2 м над землей.
R - Количество осадков - Количество выпавших осадков за период времени, мм. При наведении курсора мыши на число - период времени, за который выпало указанное количество осадков.
R24 - Количество осадков - Количество выпавших осадков за 24 часа, мм.
S - Снежный покров - Высота снежного покрова, см. При наведении курсора мыши на число - состояние снежного покрова и степень покрытия местности в баллах.